EW7704 Weather Reports


Display with metric or nautical units.
time (UTC)temp
F
wind
direction
speed
MPH
gust
MPH
rain 1hr
in
rain 24hr
in
rain mn
in
humidity
%
barometer
mb
20260903121509 55 360 0.0 2.0 0.00 0.00 0.00 87 1005.1
20260903121012 55 360 0.0 4.0 0.00 0.00 0.00 86 1005.3
20260903120508 56 360 0.0 4.0 0.00 0.00 0.00 86 1005.2
20260903120007 55 360 1.0 3.0 0.00 0.00 0.00 87 1005.2
20260903115508 56 360 0.0 3.0 0.00 0.00 0.00 87 1005.0
20260903115006 56 360 0.0 3.0 0.00 0.00 0.00 86 1005.1
20260903114506 56 360 0.0 2.0 0.00 0.00 0.00 87 1005.0
20260903114005 56 360 0.0 2.0 0.00 0.00 0.00 86 1005.0
20260903113505 56 360 0.0 2.0 0.00 0.00 0.00 87 1004.9
20260903113017 56 360 0.0 2.0 0.00 0.00 0.00 86 1004.9
20260903112505 57 360 0.0 2.0 0.00 0.00 0.00 86 1004.9
20260903112005 57 360 0.0 2.0 0.00 0.00 0.00 86 1004.8
20260903111506 57 360 0.0 2.0 0.00 0.00 0.00 87 1004.6
20260903111005 56 360 0.0 3.0 0.00 0.00 0.00 87 1004.8
20260903110505 56 360 0.0 2.0 0.00 0.00 0.00 88 1004.9
20260903110005 56 360 0.0 2.0 0.00 0.00 0.00 87 1004.8
20260903105504 56 360 0.0 1.0 0.00 0.00 0.00 87 1004.8
20260903105005 56 360 0.0 1.0 0.00 0.00 0.00 86 1004.6
20260903104503 56 360 0.0 1.0 0.00 0.00 0.00 88 1004.7
20260903104004 56 360 0.0 1.0 0.00 0.00 0.00 87 1004.7
20260903103501 57 360 0.0 1.0 0.00 0.00 0.00 87 1004.8
20260903103001 56 360 0.0 1.0 0.00 0.00 0.00 88 1004.8
20260903102500 56 360 0.0 2.0 0.00 0.00 0.00 88 1004.8
20260903102100 56 360 0.0 2.0 0.00 0.00 0.00 88 1004.9
20260903101602 57 360 0.0 1.0 0.00 0.00 0.00 88 1005.0
20260903101059 57 360 0.0 1.0 0.00 0.00 0.00 86 1004.9
20260903100559 57 360 0.0 1.0 0.00 0.00 0.00 86 1004.7
20260903100059 57 360 0.0 1.0 0.00 0.00 0.00 85 1004.9
20260903095558 58 360 0.0 1.0 0.00 0.00 0.00 85 1005.0
20260903095058 58 360 0.0 2.0 0.00 0.00 0.00 85 1005.1
20260903094557 57 360 0.0 2.0 0.00 0.00 0.00 85 1005.1
20260903094057 57 360 0.0 1.0 0.00 0.00 0.00 84 1005.0
20260903093558 58 142 0.0 1.0 0.00 0.00 0.00 81 1005.0
20260903093100 59 147 0.0 1.0 0.00 0.00 0.00 82 1005.0
20260903092557 59 147 0.0 1.0 0.00 0.00 0.00 83 1004.9
20260903092055 59 147 0.0 1.0 0.00 0.00 0.00 84 1005.0
20260903091556 59 147 0.0 1.0 0.00 0.00 0.00 85 1004.9
20260903091054 59 147 0.0 0.0 0.00 0.00 0.00 84 1005.0
20260903090554 59 147 0.0 1.0 0.00 0.00 0.00 85 1005.0
20260903090054 59 147 0.0 1.0 0.00 0.00 0.00 85 1004.9
20260903085552 59 136 0.0 1.0 0.00 0.00 0.00 84 1005.0
20260903085052 59 142 0.0 1.0 0.00 0.00 0.00 84 1004.9
20260903084553 60 98 0.0 0.0 0.00 0.00 0.00 83 1004.9
20260903084050 60 360 0.0 1.0 0.00 0.00 0.00 82 1004.9
20260903083549 61 360 0.0 0.0 0.00 0.00 0.00 81 1004.9
20260903083048 61 148 0.0 0.0 0.00 0.00 0.00 80 1004.9
20260903082547 62 149 0.0 1.0 0.00 0.00 0.00 80 1004.9
20260903082048 61 149 0.0 1.0 0.00 0.00 0.00 81 1005.0
20260903081547 61 137 0.0 1.0 0.00 0.00 0.00 82 1005.0
20260903081148 61 136 0.0 1.0 0.00 0.00 0.00 82 1005.0
20260903080547 61 128 0.0 1.0 0.00 0.00 0.00 82 1004.9
20260903080044 61 112 0.0 0.0 0.00 0.00 0.00 81 1004.8
20260903075543 62 113 0.0 0.0 0.00 0.00 0.00 81 1004.7
20260903075042 62 113 0.0 0.0 0.00 0.00 0.00 81 1004.8
20260903074550 62 114 0.0 0.0 0.00 0.00 0.00 81 1004.8
20260903074040 62 114 0.0 0.0 0.00 0.00 0.00 79 1004.9
20260903073539 63 112 0.0 1.0 0.00 0.00 0.00 79 1005.0
20260903073138 63 113 0.0 1.0 0.00 0.00 0.00 78 1005.1
20260903072538 64 114 0.0 2.0 0.00 0.00 0.00 77 1005.1
20260903072038 63 114 0.0 2.0 0.00 0.00 0.00 77 1005.1
20260903071538 63 10 0.0 1.0 0.00 0.00 0.00 77 1005.1
20260903071036 63 10 0.0 2.0 0.00 0.00 0.00 76 1005.2
20260903070536 63 10 1.0 2.0 0.00 0.00 0.00 76 1005.4
20260903070036 64 236 0.0 1.0 0.00 0.00 0.00 74 1005.4
20260903065536 64 236 0.0 1.0 0.00 0.00 0.00 74 1005.3
20260903065035 64 236 0.0 0.0 0.00 0.00 0.00 73 1005.4
20260903064535 64 236 0.0 1.0 0.00 0.00 0.00 74 1005.5
20260903064035 64 236 0.0 2.0 0.00 0.00 0.00 75 1005.4
20260903063534 63 236 0.0 2.0 0.00 0.00 0.00 76 1005.4
20260903063035 63 85 0.0 2.0 0.00 0.00 0.00 76 1005.2
20260903062531 64 86 1.0 2.0 0.00 0.00 0.00 72 1005.3
20260903062031 65 134 0.0 3.0 0.00 0.00 0.00 69 1005.2
20260903061531 65 134 0.0 3.0 0.00 0.00 0.00 69 1005.4
20260903061029 65 115 1.0 3.0 0.00 0.00 0.00 69 1005.3
20260903060528 65 139 0.0 1.0 0.00 0.00 0.00 70 1005.2
20260903060027 65 139 0.0 2.0 0.00 0.00 0.00 70 1005.2
20260903055527 65 139 0.0 2.0 0.00 0.00 0.00 70 1005.1
20260903055027 65 139 0.0 2.0 0.00 0.00 0.00 70 1005.3
20260903054532 65 139 0.0 2.0 0.00 0.00 0.00 70 1005.2
20260903054026 65 139 0.0 2.0 0.00 0.00 0.00 70 1004.9
20260903053526 65 137 1.0 2.0 0.00 0.00 0.00 70 1005.0
20260903053026 65 248 0.0 1.0 0.00 0.00 0.00 70 1005.0
20260903052526 65 248 0.0 1.0 0.00 0.00 0.00 69 1004.9
20260903052026 65 250 0.0 1.0 0.00 0.00 0.00 70 1005.1
20260903051526 65 250 0.0 0.0 0.00 0.00 0.00 72 1005.2
20260903051029 65 250 0.0 0.0 0.00 0.00 0.00 71 1005.3
20260903050528 66 250 0.0 0.0 0.00 0.00 0.00 67 1005.2
20260903050027 67 251 0.0 1.0 0.00 0.00 0.00 66 1005.4
20260903045527 67 251 0.0 2.0 0.00 0.00 0.00 66 1005.6
20260903045025 67 252 0.0 3.0 0.00 0.00 0.00 66 1005.6
20260903044527 67 242 0.0 2.0 0.00 0.00 0.00 66 1005.6
20260903044025 67 248 0.0 6.0 0.00 0.00 0.00 65 1005.5
20260903043525 67 252 3.0 6.0 0.00 0.00 0.00 65 1005.5
20260903043027 67 222 2.0 5.0 0.00 0.00 0.00 66 1005.5
20260903042626 67 234 2.0 5.0 0.00 0.00 0.00 65 1005.5
20260903042024 67 74 1.0 7.0 0.00 0.00 0.00 66 1005.3
20260903041524 66 259 1.0 4.0 0.00 0.00 0.00 68 1005.1
20260903041024 67 120 0.0 7.0 0.00 0.00 0.00 65 1004.9
20260903040524 67 75 3.0 8.0 0.00 0.00 0.00 65 1005.0
20260903040023 67 151 3.0 10.0 0.00 0.00 0.00 65 1004.9
20260903035522 68 144 4.0 10.0 0.00 0.00 0.00 64 1004.8
20260903035022 68 131 6.0 10.0 0.00 0.00 0.00 63 1005.0
20260903034522 67 94 5.0 10.0 0.00 0.00 0.00 66 1004.8
20260903034020 67 138 5.0 10.0 0.00 0.00 0.00 67 1005.0
20260903033522 67 100 3.0 11.0 0.00 0.00 0.00 69 1005.1
20260903033031 69 115 7.0 11.0 0.00 0.00 0.00 64 1005.1
20260903032521 70 272 1.0 3.0 0.00 0.00 0.00 62 1004.4
20260903032021 70 360 0.0 4.0 0.00 0.00 0.00 62 1004.8
20260903031521 70 360 2.0 12.0 0.00 0.00 0.00 60 1005.3
20260903031018 70 360 3.0 12.0 0.00 0.00 0.00 59 1005.5
20260903030523 70 360 8.0 12.0 0.00 0.00 0.00 59 1005.7
20260903030018 70 360 1.0 5.0 0.00 0.00 0.00 55 1005.3
20260903025520 70 360 0.0 5.0 0.00 0.00 0.00 55 1004.9
20260903025016 70 360 0.0 5.0 0.00 0.00 0.00 56 1004.6
20260903024516 70 360 1.0 4.0 0.00 0.00 0.00 55 1004.6
20260903024015 70 360 1.0 4.0 0.00 0.00 0.00 54 1004.3
20260903023516 71 360 0.0 3.0 0.00 0.00 0.00 54 1004.3
20260903023018 71 360 0.0 3.0 0.00 0.00 0.00 56 1004.2
20260903022516 71 360 1.0 3.0 0.00 0.00 0.00 56 1004.4
20260903022015 71 360 0.0 5.0 0.00 0.00 0.00 56 1004.4
20260903021519 72 205 1.0 5.0 0.00 0.00 0.00 55 1004.2
20260903021019 72 347 1.0 3.0 0.00 0.00 0.00 52 1004.6
20260903020517 72 190 0.0 4.0 0.00 0.00 0.00 51 1004.6
20260903020014 72 360 1.0 4.0 0.00 0.00 0.00 51 1004.4
20260903015514 73 360 1.0 5.0 0.00 0.00 0.00 51 1004.2
20260903015015 73 360 1.0 5.0 0.00 0.00 0.00 51 1004.1
20260903014513 73 360 2.0 7.0 0.00 0.00 0.00 50 1004.1
20260903014014 73 154 3.0 8.0 0.00 0.00 0.00 49 1004.0
20260903013514 74 65 1.0 6.0 0.00 0.00 0.00 50 1004.0
20260903013013 74 344 1.0 6.0 0.00 0.00 0.00 48 1004.0
20260903012515 75 27 1.0 3.0 0.00 0.00 0.00 46 1004.0
20260903012016 75 34 1.0 5.0 0.00 0.00 0.00 45 1004.0
20260903011513 75 49 0.0 5.0 0.00 0.00 0.00 43 1004.0
20260903011012 75 327 0.0 5.0 0.00 0.00 0.00 43 1003.8
20260903010513 76 20 1.0 3.0 0.00 0.00 0.00 42 1003.7
20260903010013 76 98 0.0 4.0 0.00 0.00 0.00 42 1003.8
20260903005515 76 114 0.0 2.0 0.00 0.00 0.00 42 1003.9
20260903005012 77 132 0.0 2.0 0.00 0.00 0.00 42 1003.9
20260903004516 77 360 0.0 5.0 0.00 0.00 0.00 40 1003.9
20260903004012 77 360 0.0 5.0 0.00 0.00 0.00 40 1003.8
20260903003512 78 13 1.0 4.0 0.00 0.00 0.00 40 1003.7
20260903003013 79 11 1.0 4.0 0.00 0.00 0.00 39 1003.8
20260903002511 79 24 2.0 4.0 0.00 0.00 0.00 38 1003.9
20260903002011 80 360 1.0 4.0 0.00 0.00 0.00 37 1003.9
20260903001515 81 34 1.0 6.0 0.00 0.00 0.00 36 1003.8
20260903001011 83 15 2.0 8.0 0.00 0.00 0.00 34 1003.7
20260903000510 83 245 2.0 8.0 0.00 0.00 0.00 34 1003.8
20260903000010 84 242 1.0 7.0 0.00 0.00 0.00 31 1003.9
20260902235510 85 346 1.0 7.0 0.00 0.00 0.00 33 1004.0
20260902235010 85 355 1.0 4.0 0.00 0.00 0.00 31 1003.9
20260902234514 85 230 1.0 3.0 0.00 0.00 0.00 31 1003.8
20260902234009 84 288 0.0 4.0 0.00 0.00 0.00 30 1003.8
20260902233509 83 198 1.0 6.0 0.00 0.00 0.00 32 1003.9
20260902233009 82 216 1.0 6.0 0.00 0.00 0.00 34 1003.9
20260902232510 82 234 1.0 11.0 0.00 0.00 0.00 34 1003.9
20260902232010 82 216 5.0 17.0 0.00 0.00 0.00 33 1003.7
20260902231515 84 360 5.0 17.0 0.00 0.00 0.00 31 1004.1
20260902231011 85 236 4.0 16.0 0.00 0.00 0.00 27 1003.8
20260902230508 86 131 4.0 9.0 0.00 0.00 0.00 26 1003.6
20260902230008 86 86 3.0 6.0 0.00 0.00 0.00 26 1003.3
20260902225508 86 10 4.0 8.0 0.00 0.00 0.00 26 1003.2
20260902225008 86 11 4.0 9.0 0.00 0.00 0.00 25 1003.0
20260902224507 87 55 4.0 11.0 0.00 0.00 0.00 25 1002.9
20260902224007 88 99 7.0 13.0 0.00 0.00 0.00 24 1003.0
20260902223507 89 56 7.0 12.0 0.00 0.00 0.00 24 1002.8
20260902223006 89 77 5.0 11.0 0.00 0.00 0.00 23 1002.9
20260902222509 89 51 3.0 12.0 0.00 0.00 0.00 23 1002.8
20260902222006 89 80 8.0 12.0 0.00 0.00 0.00 24 1002.8
20260902221506 89 57 6.0 13.0 0.00 0.00 0.00 23 1002.9
20260902221006 89 24 7.0 13.0 0.00 0.00 0.00 23 1003.1
20260902220506 89 50 7.0 14.0 0.00 0.00 0.00 23 1003.2
20260902220004 90 65 7.0 14.0 0.00 0.00 0.00 23 1003.3
20260902215504 90 49 3.0 12.0 0.00 0.00 0.00 23 1003.4
20260902215003 89 82 6.0 14.0 0.00 0.00 0.00 24 1003.4
20260902214600 89 53 8.0 14.0 0.00 0.00 0.00 22 1003.5
20260902214102 89 46 7.0 15.0 0.00 0.00 0.00 23 1003.5
20260902213600 89 73 7.0 17.0 0.00 0.00 0.00 23 1003.6
20260902213108 89 88 8.0 15.0 0.00 0.00 0.00 23 1003.6
20260902212559 89 63 5.0 13.0 0.00 0.00 0.00 23 1003.6
20260902212058 89 35 8.0 13.0 0.00 0.00 0.00 23 1003.7
20260902211603 89 80 5.0 14.0 0.00 0.00 0.00 22 1003.9
20260902211056 89 44 7.0 13.0 0.00 0.00 0.00 23 1004.0
20260902210557 89 46 9.0 13.0 0.00 0.00 0.00 23 1004.1
20260902205554 88 74 3.0 15.0 0.00 0.00 0.00 23 1004.3
20260902205059 88 64 8.0 15.0 0.00 0.00 0.00 23 1004.3
20260902204553 88 71 6.0 14.0 0.00 0.00 0.00 23 1004.5
20260902204051 89 59 9.0 14.0 0.00 0.00 0.00 23 1004.5
20260902203550 88 49 5.0 10.0 0.00 0.00 0.00 23 1004.7
20260902203051 88 52 3.0 11.0 0.00 0.00 0.00 22 1004.9
20260902202549 88 87 6.0 11.0 0.00 0.00 0.00 23 1004.9
20260902202048 88 340 2.0 11.0 0.00 0.00 0.00 24 1004.9
20260902201549 88 5 4.0 12.0 0.00 0.00 0.00 23 1005.0
20260902201050 89 42 6.0 12.0 0.00 0.00 0.00 23 1005.0
20260902200546 87 40 4.0 12.0 0.00 0.00 0.00 23 1005.2
20260902200049 87 13 4.0 7.0 0.00 0.00 0.00 23 1005.2
20260902195547 88 40 4.0 8.0 0.00 0.00 0.00 22 1005.3
20260902195044 88 130 1.0 10.0 0.00 0.00 0.00 24 1005.5
20260902194543 87 44 5.0 10.0 0.00 0.00 0.00 23 1005.5
20260902194042 87 76 4.0 10.0 0.00 0.00 0.00 22 1005.5
20260902193541 87 88 5.0 13.0 0.00 0.00 0.00 23 1005.7
20260902193041 87 103 6.0 13.0 0.00 0.00 0.00 23 1005.6
20260902192540 87 111 3.0 12.0 0.00 0.00 0.00 24 1005.6
20260902192042 87 80 3.0 12.0 0.00 0.00 0.00 23 1005.7
20260902191539 87 80 5.0 14.0 0.00 0.00 0.00 24 1005.8
20260902191038 87 31 8.0 14.0 0.00 0.00 0.00 24 1005.9
20260902190537 86 36 5.0 11.0 0.00 0.00 0.00 25 1005.9
20260902190037 86 18 5.0 11.0 0.00 0.00 0.00 24 1006.0
20260902185536 86 34 4.0 12.0 0.00 0.00 0.00 24 1006.1
20260902185036 87 36 6.0 12.0 0.00 0.00 0.00 24 1006.2
20260902184533 86 30 6.0 11.0 0.00 0.00 0.00 24 1006.3
20260902184033 86 132 5.0 11.0 0.00 0.00 0.00 24 1006.4
20260902183532 86 34 4.0 14.0 0.00 0.00 0.00 25 1006.5
20260902183032 86 61 6.0 14.0 0.00 0.00 0.00 25 1006.5
20260902182530 86 113 8.0 16.0 0.00 0.00 0.00 24 1006.6
20260902182034 86 45 7.0 16.0 0.00 0.00 0.00 24 1006.7
20260902181530 86 74 7.0 12.0 0.00 0.00 0.00 25 1006.9
20260902181029 85 63 8.0 12.0 0.00 0.00 0.00 25 1007.0
20260902180529 86 90 5.0 14.0 0.00 0.00 0.00 25 1007.1
20260902180029 85 92 8.0 14.0 0.00 0.00 0.00 26 1007.3
20260902175529 85 58 6.0 14.0 0.00 0.00 0.00 26 1007.4
20260902175028 84 78 7.0 13.0 0.00 0.00 0.00 27 1007.5
20260902174527 85 130 7.0 13.0 0.00 0.00 0.00 27 1007.4
20260902174026 84 65 3.0 10.0 0.00 0.00 0.00 28 1007.5
20260902173526 84 30 4.0 11.0 0.00 0.00 0.00 26 1007.6
20260902173027 84 63 6.0 11.0 0.00 0.00 0.00 28 1007.7
20260902172526 84 121 4.0 12.0 0.00 0.00 0.00 28 1007.7
20260902172023 84 115 5.0 12.0 0.00 0.00 0.00 28 1007.7
20260902171523 84 70 6.0 11.0 0.00 0.00 0.00 26 1007.8
20260902171021 83 90 3.0 9.0 0.00 0.00 0.00 29 1008.0
20260902170520 83 102 5.0 9.0 0.00 0.00 0.00 28 1008.0
20260902170020 83 81 6.0 9.0 0.00 0.00 0.00 30 1008.1
20260902165520 83 112 5.0 9.0 0.00 0.00 0.00 29 1008.1
20260902165019 82 112 5.0 10.0 0.00 0.00 0.00 28 1008.1
20260902164520 82 86 6.0 10.0 0.00 0.00 0.00 29 1008.2
20260902164019 82 61 6.0 9.0 0.00 0.00 0.00 30 1008.2
20260902163519 82 71 5.0 10.0 0.00 0.00 0.00 31 1008.2
20260902163017 82 188 3.0 10.0 0.00 0.00 0.00 31 1008.2
20260902162516 82 90 6.0 10.0 0.00 0.00 0.00 31 1008.2
20260902162015 81 88 3.0 10.0 0.00 0.00 0.00 31 1008.2
20260902161523 81 119 4.0 9.0 0.00 0.00 0.00 32 1008.2
20260902161017 81 77 4.0 9.0 0.00 0.00 0.00 32 1008.3
20260902160517 81 71 4.0 10.0 0.00 0.00 0.00 32 1008.2
20260902160012 80 80 4.0 8.0 0.00 0.00 0.00 33 1008.2
20260902155511 80 90 4.0 9.0 0.00 0.00 0.00 33 1008.2
20260902155014 80 107 4.0 8.0 0.00 0.00 0.00 33 1008.2
20260902154512 79 21 3.0 8.0 0.00 0.00 0.00 34 1008.3
20260902154008 79 81 3.0 6.0 0.00 0.00 0.00 35 1008.2
20260902153508 79 131 2.0 7.0 0.00 0.00 0.00 37 1008.2
20260902153006 78 108 2.0 7.0 0.00 0.00 0.00 37 1008.2
20260902152505 78 109 3.0 8.0 0.00 0.00 0.00 38 1008.2
20260902152006 77 98 2.0 10.0 0.00 0.00 0.00 40 1008.2
20260902151503 77 105 1.0 7.0 0.00 0.00 0.00 42 1008.2
20260902151002 76 97 3.0 8.0 0.00 0.00 0.00 41 1008.4
20260902150501 75 78 2.0 8.0 0.00 0.00 0.00 42 1008.4
20260902150100 75 101 3.0 6.0 0.00 0.00 0.00 43 1008.4
20260902145559 74 107 3.0 8.0 0.00 0.00 0.00 45 1008.4
20260902145057 74 118 3.0 8.0 0.00 0.00 0.00 45 1008.4
20260902144557 74 98 2.0 5.0 0.00 0.00 0.00 46 1008.3
20260902144055 73 115 2.0 6.0 0.00 0.00 0.00 48 1008.4
20260902143555 72 111 3.0 6.0 0.00 0.00 0.00 49 1008.4
20260902143057 72 92 3.0 6.0 0.00 0.00 0.00 51 1008.5
20260902142552 71 85 2.0 7.0 0.00 0.00 0.00 51 1008.5
20260902142052 71 78 2.0 7.0 0.00 0.00 0.00 51 1008.4
20260902141548 70 113 0.0 4.0 0.00 0.00 0.00 55 1008.6
20260902141051 69 325 0.0 3.0 0.00 0.00 0.00 57 1008.5
20260902140546 67 148 1.0 3.0 0.00 0.00 0.00 58 1008.5
20260902140046 66 227 0.0 3.0 0.00 0.00 0.00 60 1008.5
20260902135543 65 119 0.0 3.0 0.00 0.00 0.00 61 1008.6
20260902135043 64 175 1.0 7.0 0.00 0.00 0.00 62 1008.6
20260902134557 63 115 3.0 7.0 0.00 0.00 0.00 63 1008.8
20260902134041 62 116 2.0 4.0 0.00 0.00 0.00 64 1008.8
20260902133541 61 111 1.0 3.0 0.00 0.00 0.00 65 1008.7
20260902133041 60 115 1.0 3.0 0.00 0.00 0.00 66 1008.7
20260902132543 59 197 0.0 2.0 0.00 0.00 0.00 68 1008.5
20260902132040 58 172 0.0 1.0 0.00 0.00 0.00 70 1008.5
20260902131547 57 145 0.0 1.0 0.00 0.00 0.00 74 1008.5
20260902131039 56 131 0.0 1.0 0.00 0.00 0.00 75 1008.4
20260902130538 55 360 0.0 3.0 0.00 0.00 0.00 76 1008.4
20260902130038 54 360 1.0 3.0 0.00 0.00 0.00 75 1008.3
20260902125538 54 360 0.0 1.0 0.00 0.00 0.00 75 1008.3
20260902125037 55 360 0.0 1.0 0.00 0.00 0.00 74 1008.2
20260902124537 55 360 0.0 2.0 0.00 0.00 0.00 74 1008.2
20260902124037 54 360 0.0 2.0 0.00 0.00 0.00 75 1008.1
20260902123536 55 360 0.0 2.0 0.00 0.00 0.00 74 1008.1
20260902123036 55 360 0.0 2.0 0.00 0.00 0.00 74 1008.2
20260902122536 55 360 0.0 2.0 0.00 0.00 0.00 74 1008.1
20260902122034 55 360 0.0 1.0 0.00 0.00 0.00 74 1008.1